SCP
1 1 1 2 2 2 2 2 1 1 1 0 0 0 1 1 1 1 1 1 0 0 0 0 0 0 0 0 0 0 0 0 0 0 0 0 0 0 1 0 0 0 0
1 1 2 2 2 2 2 2 1 1 1 1 1 0 0 1 1 1 1 1 0 0 0 0 0 0 0 0 0 0 0 0 0 0 0 0 0 0 0 0 0 0 0
1 1 2 2 3 3 2 2 1 1 1 1 1 1 1 1 0 0 0 0 0 0 0 0 0 0 0 0 0 0 0 0 0 0 0 0 0 0 0 0 0 0 0
2 2 2 3 3 3 3 2 1 1 1 1 1 1 1 1 0 0 0 0 0 0 0 0 0 0 0 0 0 0 0 0 0 0 0 0 0 0 0 0 0 0 0
2 2 2 3 3 3 3 2 1 1 1 1 1 1 1 1 1 1 1 1 1 0 0 0 0 0 0 0 0 0 0 0 0 0 0 0 0 0 0 0 0 0 0
2 2 2 3 3 3 2 2 2 1 1 1 1 1 1 1 1 1 1 1 1 1 1 0 0 0 0 0 0 0 0 0 0 0 0 0 0 0 0 0 0 0 0
2 2 2 3 3 3 2 2 2 1 1 1 1 1 1 1 1 1 1 1 1 1 1 1 1 1 0 0 0 0 0 0 0 0 0 0 0 0 0 0 0 0 0
2 2 2 3 3 3 2 2 2 2 1 1 1 1 1 1 1 1 1 1 1 1 1 1 1 1 1 0 0 0 0 0 0 0 0 0 0 1 1 1 1 1 0
2 2 2 2 2 2 2 2 2 2 1 1 1 1 1 1 1 1 1 1 1 1 1 1 1 1 1 1 0 0 0 0 0 0 0 0 0 1 1 1 1 1 1
2 2 2 2 2 2 2 2 2 2 2 2 1 1 1 1 1 1 1 1 1 1 1 1 1 1 1 1 1 0 0 0 0 0 0 0 0 1 1 1 1 1 1
3 3 2 3 3 3 2 2 2 2 2 2 2 2 2 1 1 1 1 1 1 1 1 1 1 1 1 1 1 1 1 1 1 1 2 1 1 1 1 1 1 1 1
4 4 3 3 3 3 2 2 2 2 2 2 2 2 2 1 1 1 1 1 2 1 1 1 1 1 2 1 1 1 1 1 1 2 3 2 1 1 1 1 1 1 1
5 4 3 3 3 3 2 2 2 2 2 2 1 2 3 3 3 2 2 2 2 2 2 2 2 2 2 2 1 1 1 1 1 2 2 2 2 2 2 2 1 1 1
5 4 4 4 3 3 2 2 2 2 2 2 2 2 3 5 3 2 2 3 3 3 3 3 2 2 2 2 1 1 1 1 1 1 1 2 2 3 2 2 2 1 1
5 5 5 5 4 3 3 3 3 3 3 2 2 2 3 4 3 2 2 3 4 3 4 4 3 2 3 2 2 1 1 1 1 1 1 2 2 3 3 3 2 1 1
6 6 6 6 5 5 4 4 3 3 3 3 2 2 3 3 3 2 2 3 3 3 3 3 3 3 3 2 2 1 1 1 1 1 1 1 2 2 3 3 2 2 2
7 7 6 6 6 6 5 4 4 4 3 3 3 3 3 3 3 2 2 2 2 2 2 3 3 3 3 2 2 1 1 1 1 1 1 2 2 2 2 2 2 2 2
6 6 5 5 6 6 5 5 4 4 3 3 3 3 2 2 2 2 1 1 1 2 2 2 3 3 3 2 2 2 2 1 1 1 1 2 3 2 2 2 2 2 2
4 4 4 5 5 6 5 4 4 3 3 3 3 3 2 2 2 2 2 1 2 2 2 3 3 4 3 3 2 2 2 2 1 1 2 2 2 2 1 2 2 2 1
3 3 3 4 4 5 5 5 4 4 3 3 3 3 3 2 2 2 2 2 2 2 3 3 4 4 3 3 2 2 2 1 1 1 2 2 1 1 2 1 1 1 1
1 1 2 3 3 4 4 5 5 5 5 5 4 3 3 2 3 3 3 2 2 2 3 3 4 4 3 2 2 1 1 1 1 1 1 1 1 2 2 2 1 1 1
1 1 2 2 3 4 4 4 5 5 5 5 4 3 3 2 2 2 3 3 3 3 3 3 3 3 3 2 2 1 1 0 0 1 1 1 1 1 2 1 1 1 1
1 1 2 2 3 3 3 3 3 3 4 4 4 3 3 2 2 2 2 3 3 3 3 3 3 3 3 2 2 1 0 0 0 0 1 1 1 1 1 1 1 1 1
1 1 2 2 2 2 2 2 2 2 2 2 2 2 2 2 2 1 1 2 2 2 3 3 3 2 2 2 1 1 0 0 0 0 1 1 1 1 1 1 1 1 1
1 1 2 1 1 1 1 1 1 1 1 1 1 1 1 1 1 1 1 1 2 2 2 2 2 2 1 1 1 1 1 0 0 0 0 0 0 0 0 0 1 1 1
1 1 1 1 1 1 1 0 0 0 0 1 1 1 1 1 1 1 1 1 1 1 1 1 1 1 1 1 1 1 1 0 0 0 0 0 0 0 0 0 0 1 1
Wind_Speed
11 12 19 20 20 20 20 19 18 18 18 17 17 17 18 18 18 18 17 17 16 15 14 13 12 12 12 13 13 13 14 14 15 16 16 15 15 15 16 17 16 12 17
15 15 19 19 20 20 20 19 18 18 17 17 17 17 17 17 17 16 16 15 15 14 13 13 12 12 12 12 13 13 13 14 14 15 15 14 14 14 15 16 15 11 17
18 14 17 19 20 20 19 19 18 18 17 17 16 16 16 16 15 15 15 14 14 14 13 13 12 12 12 12 12 12 12 13 14 14 13 7 8 13 14 16 16 16 16
18 13 14 20 20 20 19 19 18 18 17 17 16 16 15 15 15 14 14 14 14 13 13 12 12 11 11 11 11 10 10 11 12 13 6 5 7 14 15 16 16 16 16
15 11 15 21 20 20 19 18 18 18 17 17 16 16 15 14 14 14 13 13 13 13 12 12 12 11 11 10 9 9 9 9 9 8 4 4 5 13 15 15 16 15 15
12 10 14 21 20 20 19 18 17 17 17 17 16 16 15 14 14 14 13 13 13 12 12 12 12 11 11 10 9 8 7 7 6 3 4 6 6 13 15 15 15 15 15
12 9 12 19 19 19 19 18 17 17 17 16 16 16 15 15 14 14 13 13 13 13 12 12 12 11 11 10 9 7 7 6 4 3 5 6 7 14 15 15 15 15 14
15 11 11 19 19 18 18 17 17 16 16 16 16 16 15 15 14 14 14 14 13 13 13 13 12 12 11 11 9 8 6 6 4 4 6 6 11 15 16 16 15 15 15
12 10 8 10 13 17 17 16 16 16 15 15 15 15 15 15 14 14 14 14 14 14 13 13 13 13 12 12 10 9 8 7 3 2 6 6 13 16 17 17 16 15 15
9 8 7 7 7 8 10 15 16 15 15 15 15 15 15 15 14 14 12 13 15 15 15 15 14 14 13 13 12 11 10 7 3 3 3 7 15 18 18 18 17 17 16
8 6 6 6 6 6 6 11 12 14 14 14 12 15 13 6 6 8 12 14 15 15 16 15 15 15 14 13 13 13 10 3 4 3 4 10 17 19 19 19 18 18 17
10 8 6 6 6 6 7 6 4 5 5 5 4 6 4 4 4 7 9 16 16 16 17 16 16 14 12 6 9 12 4 5 4 4 5 13 17 19 20 19 19 19 18
9 8 7 6 7 7 5 5 4 3 3 3 4 4 3 3 4 5 4 8 10 13 9 11 11 7 6 5 5 5 5 5 4 4 5 13 18 20 21 21 20 20 19
7 7 6 5 5 6 5 5 4 3 4 4 5 6 4 3 4 4 3 4 5 5 6 6 5 7 7 7 7 7 7 5 4 4 5 13 18 20 21 22 21 21 20
6 5 5 5 4 3 3 3 4 4 4 4 3 4 5 4 4 4 3 4 5 5 6 6 6 7 8 8 8 9 9 8 7 6 4 12 18 20 22 23 22 22 21
5 3 3 3 3 3 2 1 2 2 2 3 3 3 4 3 3 3 3 3 4 5 6 6 7 7 6 6 8 8 8 8 8 7 5 8 16 20 21 22 22 22 22
6 5 4 5 4 4 3 1 1 2 3 3 2 2 3 3 3 2 2 2 3 3 4 4 6 5 5 7 8 8 7 8 7 8 7 5 8 17 21 22 22 21 22
6 6 5 5 5 4 3 3 2 2 2 2 2 2 2 3 3 2 2 3 3 3 3 3 4 4 5 6 6 6 6 6 8 8 7 7 6 8 14 21 21 20 21
5 5 6 6 5 4 4 3 2 2 2 1 1 1 1 1 2 1 2 2 3 2 3 4 3 4 5 6 6 6 6 6 7 9 8 9 8 8 7 14 20 20 21
5 5 6 6 5 4 3 3 3 3 2 1 1 0 0 1 1 1 2 2 2 2 2 2 3 3 4 4 6 6 5 6 5 7 9 8 8 10 10 10 10 13 20
4 5 5 5 5 4 3 3 2 2 2 2 1 1 1 1 1 1 2 2 2 2 3 2 2 4 4 3 2 2 3 5 6 6 6 6 8 10 10 9 7 6 8
3 3 4 4 3 3 2 1 1 1 1 1 2 2 2 2 2 2 2 2 2 2 2 2 2 2 3 2 2 1 2 2 4 7 6 7 8 7 9 11 8 8 7
3 2 3 3 3 2 2 2 2 3 3 3 3 3 3 3 3 2 3 3 3 2 2 3 3 3 3 3 3 3 3 4 2 2 6 7 7 6 7 7 9 9 9
2 2 3 2 2 2 2 3 3 2 1 2 3 3 4 4 3 3 3 3 3 2 3 3 3 2 3 3 3 4 4 3 2 1 2 4 7 7 7 7 8 8 8
2 2 2 3 2 2 2 2 2 1 2 2 3 4 4 4 4 4 3 3 3 3 3 3 3 3 2 3 2 2 3 1 2 2 2 2 2 4 5 6 6 6 7
3 3 3 3 2 2 2 2 1 2 3 3 4 4 4 3 4 4 3 2 2 2 3 4 3 4 3 3 2 2 2 2 2 2 2 2 2 2 3 4 5 6 6
Wind_Direction
154 160 153 146 141 138 135 132 129 125 122 120 119 118 118 118 118 120 122 123 124 124 123 121 119 116 116 116 117 118 119 119 120 122 122 121 121 122 122 119 117 116 118
150 156 153 148 144 142 139 137 134 131 129 127 126 125 124 124 124 125 125 126 127 126 126 125 122 120 120 120 121 122 123 123 123 122 120 118 121 124 123 122 119 125 124
145 151 151 149 146 144 142 141 140 138 136 135 133 133 132 132 131 131 132 132 132 130 130 129 127 126 125 125 126 127 128 128 126 124 118 112 121 129 128 127 126 127 127
144 147 150 150 148 147 146 145 145 144 142 141 140 140 140 140 140 140 140 139 138 137 136 136 135 134 133 133 133 133 134 135 134 130 122 121 124 130 131 131 131 132 131
141 144 154 151 150 149 149 149 149 149 148 148 147 148 148 149 149 148 148 148 146 145 145 145 143 142 143 143 142 141 141 143 146 141 138 131 126 135 136 137 137 136 135
139 143 154 152 152 152 152 153 154 154 154 154 154 155 156 157 158 157 157 156 155 155 155 154 152 152 153 154 156 155 155 158 152 140 142 144 143 144 143 143 144 142 141
141 145 153 153 153 154 156 157 158 159 159 160 160 161 163 166 167 166 166 167 166 165 164 164 163 162 163 166 171 173 173 175 157 147 154 158 160 153 151 150 149 148 147
144 146 151 156 156 157 159 161 161 163 164 165 166 168 170 173 174 174 174 175 176 175 175 174 174 175 176 177 184 191 194 196 166 158 164 171 170 162 158 156 155 155 154
141 144 148 156 160 162 163 165 166 167 168 170 172 174 177 180 182 182 183 184 184 184 185 185 184 185 186 187 192 201 210 213 166 159 178 177 178 170 165 163 162 162 162
134 145 147 149 154 159 165 170 172 173 175 177 179 182 184 187 189 191 191 193 193 193 193 194 193 194 194 195 199 206 215 220 194 188 181 187 185 177 173 171 169 169 169
133 145 152 155 153 153 162 177 177 180 183 184 187 190 189 192 194 197 202 204 204 203 203 202 201 200 200 203 206 211 216 205 195 202 194 198 192 184 179 177 176 174 175
152 163 168 168 166 164 178 172 174 184 183 183 186 195 188 185 200 208 214 213 214 213 212 211 210 206 203 203 212 214 211 206 208 214 209 202 194 190 184 183 182 180 180
155 163 163 173 177 179 185 164 177 181 173 184 190 196 195 195 207 217 215 222 220 218 218 217 214 209 202 195 200 206 208 210 211 217 218 205 196 195 191 188 187 186 185
134 146 152 174 176 180 178 169 173 178 179 193 202 197 194 209 219 220 218 223 217 212 207 210 210 206 204 201 200 207 211 211 212 210 222 214 199 198 196 194 192 191 190
119 140 156 169 172 172 157 169 171 183 184 182 188 197 195 204 219 211 216 217 213 208 207 206 210 211 210 209 208 211 213 212 213 212 221 219 206 202 201 198 197 197 195
77 86 113 113 110 102 108 139 150 156 148 157 174 188 192 201 227 225 219 220 220 213 211 208 210 211 213 212 216 217 214 210 215 215 213 220 212 204 203 202 201 201 200
58 54 68 93 82 93 104 119 115 122 125 135 141 148 163 181 203 213 228 230 230 223 219 214 215 212 218 218 222 221 215 209 209 214 209 208 211 207 203 204 203 203 204
58 52 46 61 58 65 72 71 69 75 101 128 150 159 165 173 187 192 222 235 239 233 221 211 207 212 222 220 221 225 222 214 212 213 210 204 204 207 210 209 207 206 206
70 65 54 47 51 51 49 47 55 68 79 117 130 148 205 198 190 201 228 236 239 243 240 236 210 205 219 224 222 220 220 215 212 214 210 206 203 203 204 214 211 208 208
72 70 62 51 43 41 37 35 29 34 27 24 35 8 298 264 229 226 240 252 236 241 243 250 241 223 220 224 233 229 221 218 213 210 210 206 204 208 207 209 210 214 212
73 69 62 57 43 42 36 28 20 358 352 350 334 308 295 283 265 230 249 258 246 235 236 235 243 244 235 210 207 249 254 232 223 216 208 201 205 210 207 206 201 201 212
90 83 77 68 58 54 52 41 15 326 318 314 326 330 310 289 274 253 236 249 251 245 249 240 233 243 246 204 180 191 262 275 246 224 204 205 206 204 205 207 202 198 202
92 97 93 84 69 57 53 43 22 14 358 354 340 324 310 298 284 271 254 248 250 240 242 237 220 231 242 235 198 186 190 223 245 243 215 209 199 197 203 201 202 199 202
113 102 95 89 64 45 55 60 50 33 335 297 296 300 306 304 294 274 257 247 242 240 243 246 226 220 229 238 233 221 210 185 184 239 260 212 202 201 199 203 201 199 198
99 95 84 65 38 21 37 54 49 1 287 291 309 320 318 314 306 299 273 250 244 243 242 240 238 232 229 231 220 220 218 208 188 172 213 221 210 209 197 195 192 193 193
63 64 62 57 24 12 22 20 21 333 319 326 323 316 311 307 305 305 290 264 249 249 250 245 237 233 231 221 216 212 182 174 187 168 186 203 206 222 200 192 189 192 190